Location: Unspecified
(0.0000°N, 0.0000°E)
Time: 18:15:14
(UTC+00:00)

STARLINK 1024 - Pass Details

Date: 17 January 2020
Orbit: 432 x 434 km, 53.0° (Epoch: 18 January)

Event Time Altitude Azimuth Distance (km) Brightness Sun altitude
Rises 05:01:17 0° 197° (SSW) 2,399 7.0 -16.0°
Reaches altitude 10° 05:03:35 10° 184° (S) 1,530 6.1 -15.5°
Maximum altitude 05:06:34 27° 124° (SE) 858 5.5 -14.8°
Drops below altitude 10° 05:09:32 10° 64° (ENE) 1,523 6.5 -14.1°
Sets 05:11:49 0° 52° (NE) 2,387 7.3 -13.5°
